QPF
0.01 0.00 0.01 0.01 0.00 0.00 0.00 0.00 0.00 0.00 0.00 0.00 0.00 0.00 0.00 0.00 0.00 0.00 0.00 0.00 0.00 0.00 0.00 0.00 0.00 0.00 0.01 0.02 0.02 0.02 0.02 0.02 0.01 0.02 0.03 0.02 0.01 0.02 0.02 0.03 0.05 0.07 0.07
0.01 0.00 0.00 0.00 0.00 0.00 0.00 0.00 0.00 0.00 0.00 0.00 0.00 0.00 0.00 0.00 0.00 0.00 0.00 0.00 0.00 0.00 0.00 0.00 0.00 0.00 0.01 0.01 0.01 0.01 0.02 0.02 0.01 0.02 0.04 0.04 0.04 0.03 0.02 0.03 0.05 0.06 0.05
0.01 0.00 0.00 0.00 0.00 0.00 0.00 0.00 0.00 0.00 0.00 0.00 0.00 0.00 0.00 0.00 0.00 0.00 0.00 0.00 0.00 0.00 0.00 0.00 0.00 0.00 0.01 0.01 0.01 0.00 0.02 0.02 0.01 0.01 0.02 0.03 0.04 0.04 0.05 0.04 0.05 0.05 0.06
0.01 0.01 0.00 0.00 0.00 0.00 0.00 0.00 0.00 0.00 0.00 0.00 0.00 0.00 0.00 0.00 0.00 0.00 0.00 0.00 0.00 0.00 0.00 0.00 0.00 0.00 0.00 0.01 0.01 0.00 0.01 0.01 0.01 0.01 0.01 0.01 0.02 0.04 0.05 0.06 0.06 0.05 0.06
0.01 0.01 0.01 0.00 0.00 0.00 0.00 0.00 0.00 0.00 0.00 0.00 0.00 0.00 0.00 0.00 0.00 0.00 0.00 0.00 0.00 0.00 0.00 0.00 0.00 0.00 0.01 0.01 0.01 0.00 0.01 0.01 0.01 0.01 0.01 0.01 0.01 0.02 0.03 0.04 0.06 0.05 0.05
0.01 0.01 0.01 0.00 0.00 0.00 0.00 0.00 0.00 0.00 0.00 0.00 0.00 0.00 0.00 0.00 0.00 0.00 0.00 0.00 0.00 0.00 0.00 0.00 0.00 0.00 0.00 0.01 0.01 0.01 0.00 0.00 0.01 0.01 0.01 0.01 0.01 0.03 0.03 0.03 0.05 0.05 0.04
0.01 0.01 0.00 0.00 0.00 0.00 0.00 0.00 0.00 0.00 0.00 0.00 0.00 0.00 0.00 0.00 0.00 0.00 0.00 0.00 0.00 0.00 0.00 0.00 0.00 0.00 0.00 0.00 0.00 0.01 0.01 0.00 0.00 0.00 0.01 0.01 0.01 0.02 0.04 0.04 0.03 0.04 0.04
0.01 0.01 0.00 0.00 0.00 0.00 0.00 0.00 0.00 0.00 0.00 0.00 0.00 0.00 0.00 0.00 0.00 0.00 0.00 0.01 0.01 0.00 0.00 0.00 0.00 0.00 0.00 0.00 0.00 0.00 0.00 0.00 0.00 0.00 0.00 0.01 0.01 0.01 0.03 0.03 0.04 0.04 0.04
0.00 0.00 0.00 0.00 0.00 0.00 0.00 0.00 0.00 0.00 0.00 0.00 0.00 0.00 0.00 0.00 0.00 0.00 0.00 0.00 0.01 0.01 0.01 0.00 0.00 0.00 0.00 0.00 0.00 0.00 0.00 0.00 0.00 0.00 0.00 0.00 0.00 0.01 0.01 0.01 0.02 0.04 0.05
0.00 0.00 0.00 0.00 0.00 0.00 0.00 0.00 0.00 0.00 0.00 0.01 0.00 0.00 0.00 0.00 0.00 0.00 0.00 0.00 0.00 0.01 0.01 0.00 0.00 0.00 0.00 0.00 0.00 0.00 0.00 0.00 0.00 0.00 0.00 0.00 0.00 0.00 0.01 0.01 0.01 0.02 0.04
0.00 0.00 0.00 0.00 0.00 0.00 0.00 0.00 0.00 0.00 0.01 0.01 0.01 0.01 0.01 0.01 0.00 0.00 0.00 0.00 0.01 0.01 0.01 0.01 0.01 0.00 0.00 0.00 0.00 0.00 0.00 0.00 0.00 0.00 0.00 0.00 0.00 0.00 0.00 0.01 0.01 0.01 0.02
0.00 0.00 0.00 0.00 0.00 0.00 0.00 0.00 0.00 0.00 0.01 0.01 0.02 0.02 0.01 0.01 0.00 0.00 0.00 0.01 0.01 0.01 0.01 0.01 0.01 0.00 0.00 0.00 0.00 0.00 0.00 0.00 0.00 0.00 0.00 0.00 0.00 0.00 0.00 0.00 0.00 0.01 0.02
0.00 0.00 0.00 0.00 0.00 0.00 0.00 0.00 0.00 0.00 0.01 0.02 0.02 0.01 0.01 0.00 0.01 0.01 0.01 0.01 0.01 0.01 0.01 0.02 0.01 0.00 0.00 0.00 0.00 0.00 0.00 0.00 0.00 0.00 0.00 0.00 0.00 0.00 0.00 0.00 0.00 0.00 0.01
0.00 0.00 0.00 0.00 0.00 0.00 0.00 0.00 0.00 0.00 0.01 0.01 0.02 0.02 0.01 0.01 0.02 0.02 0.02 0.02 0.02 0.02 0.02 0.01 0.00 0.00 0.00 0.00 0.00 0.00 0.00 0.00 0.00 0.00 0.00 0.00 0.00 0.00 0.00 0.00 0.00 0.00 0.00
0.00 0.00 0.00 0.00 0.00 0.00 0.00 0.00 0.00 0.00 0.01 0.02 0.03 0.03 0.03 0.03 0.03 0.03 0.02 0.03 0.03 0.02 0.01 0.00 0.00 0.00 0.00 0.00 0.00 0.00 0.00 0.00 0.00 0.00 0.00 0.00 0.00 0.00 0.00 0.00 0.00 0.00 0.00
0.00 0.00 0.00 0.00 0.00 0.00 0.00 0.00 0.00 0.00 0.01 0.02 0.02 0.03 0.02 0.02 0.02 0.03 0.03 0.02 0.02 0.01 0.00 0.00 0.00 0.00 0.00 0.00 0.00 0.00 0.00 0.00 0.00 0.00 0.00 0.00 0.00 0.00 0.00 0.00 0.00 0.00 0.00
0.00 0.00 0.00 0.00 0.00 0.00 0.00 0.00 0.00 0.00 0.01 0.01 0.01 0.02 0.02 0.02 0.02 0.02 0.01 0.01 0.00 0.00 0.00 0.00 0.00 0.00 0.00 0.00 0.00 0.00 0.00 0.00 0.00 0.00 0.00 0.00 0.00 0.00 0.00 0.00 0.00 0.00 0.00
0.00 0.00 0.00 0.00 0.00 0.00 0.00 0.00 0.00 0.00 0.01 0.01 0.01 0.02 0.01 0.01 0.01 0.01 0.01 0.00 0.00 0.00 0.00 0.00 0.00 0.00 0.00 0.00 0.00 0.00 0.00 0.00 0.00 0.00 0.00 0.00 0.00 0.00 0.00 0.00 0.00 0.00 0.00
0.00 0.00 0.00 0.00 0.00 0.00 0.00 0.00 0.00 0.00 0.00 0.01 0.01 0.01 0.01 0.01 0.01 0.00 0.00 0.00 0.00 0.00 0.00 0.00 0.00 0.00 0.00 0.00 0.00 0.00 0.00 0.00 0.00 0.00 0.00 0.00 0.00 0.00 0.00 0.00 0.00 0.00 0.00
0.00 0.00 0.00 0.00 0.00 0.00 0.00 0.00 0.00 0.00 0.00 0.00 0.01 0.01 0.01 0.01 0.01 0.00 0.00 0.00 0.00 0.00 0.00 0.00 0.00 0.00 0.00 0.00 0.00 0.00 0.00 0.00 0.00 0.00 0.00 0.00 0.00 0.00 0.00 0.00 0.00 0.00 0.01
0.00 0.00 0.00 0.00 0.00 0.00 0.00 0.00 0.00 0.00 0.00 0.00 0.01 0.01 0.01 0.00 0.00 0.00 0.00 0.00 0.00 0.00 0.00 0.00 0.00 0.00 0.00 0.00 0.00 0.00 0.00 0.00 0.00 0.00 0.00 0.00 0.00 0.00 0.00 0.00 0.00 0.00 0.01
0.00 0.00 0.00 0.00 0.00 0.00 0.00 0.00 0.00 0.00 0.00 0.00 0.00 0.00 0.00 0.00 0.00 0.00 0.00 0.00 0.00 0.00 0.00 0.00 0.00 0.00 0.00 0.00 0.00 0.00 0.00 0.00 0.00 0.00 0.00 0.00 0.00 0.00 0.00 0.00 0.00 0.00 0.01
0.00 0.00 0.00 0.00 0.00 0.00 0.00 0.00 0.00 0.00 0.00 0.00 0.00 0.00 0.00 0.00 0.00 0.00 0.00 0.00 0.00 0.00 0.00 0.00 0.00 0.00 0.00 0.00 0.00 0.00 0.00 0.00 0.00 0.00 0.00 0.00 0.00 0.00 0.00 0.00 0.00 0.00 0.00
0.00 0.00 0.00 0.00 0.00 0.00 0.00 0.00 0.00 0.00 0.00 0.00 0.00 0.00 0.00 0.00 0.00 0.00 0.00 0.00 0.00 0.00 0.00 0.00 0.00 0.00 0.00 0.00 0.00 0.00 0.00 0.00 0.00 0.00 0.00 0.00 0.00 0.00 0.00 0.00 0.00 0.00 0.00
0.00 0.00 0.00 0.00 0.00 0.00 0.00 0.00 0.00 0.00 0.00 0.00 0.00 0.00 0.00 0.00 0.00 0.00 0.00 0.00 0.00 0.00 0.00 0.00 0.00 0.00 0.00 0.00 0.00 0.00 0.00 0.00 0.00 0.00 0.00 0.00 0.00 0.00 0.00 0.00 0.00 0.00 0.00
0.00 0.00 0.00 0.00 0.00 0.00 0.00 0.00 0.00 0.00 0.00 0.00 0.00 0.00 0.00 0.00 0.00 0.00 0.00 0.00 0.00 0.00 0.00 0.00 0.00 0.00 0.00 0.00 0.00 0.00 0.00 0.00 0.00 0.00 0.00 0.00 0.00 0.00 0.00 0.00 0.00 0.00 0.00
MSLP
1014.92 1015.10 1015.26 1015.36 1015.40 1015.44 1015.50 1015.62 1015.82 1016.10 1016.43 1016.77 1017.09 1017.35 1017.53 1017.63 1017.67 1017.67 1017.66 1017.65 1017.66 1017.68 1017.70 1017.71 1017.69 1017.65 1017.59 1017.51 1017.43 1017.36 1017.31 1017.27 1017.24 1017.20 1017.13 1017.02 1016.87 1016.68 1016.47 1016.25 1016.06 1015.91 1015.84
1014.69 1014.92 1015.11 1015.24 1015.31 1015.34 1015.38 1015.48 1015.67 1015.96 1016.32 1016.72 1017.12 1017.47 1017.74 1017.91 1018.00 1018.03 1018.01 1017.98 1017.95 1017.93 1017.92 1017.92 1017.91 1017.88 1017.85 1017.80 1017.76 1017.74 1017.72 1017.73 1017.73 1017.73 1017.70 1017.62 1017.49 1017.31 1017.09 1016.86 1016.65 1016.49 1016.41
1014.38 1014.66 1014.91 1015.08 1015.17 1015.20 1015.23 1015.30 1015.48 1015.76 1016.14 1016.59 1017.06 1017.49 1017.86 1018.12 1018.28 1018.34 1018.35 1018.32 1018.28 1018.24 1018.22 1018.20 1018.18 1018.17 1018.14 1018.12 1018.11 1018.10 1018.12 1018.16 1018.21 1018.25 1018.27 1018.25 1018.17 1018.03 1017.84 1017.63 1017.43 1017.27 1017.18
1014.01 1014.36 1014.69 1014.92 1015.04 1015.08 1015.09 1015.15 1015.29 1015.55 1015.94 1016.41 1016.93 1017.44 1017.88 1018.23 1018.47 1018.60 1018.66 1018.66 1018.64 1018.61 1018.59 1018.57 1018.56 1018.55 1018.53 1018.51 1018.50 1018.51 1018.55 1018.61 1018.70 1018.79 1018.87 1018.90 1018.89 1018.81 1018.68 1018.51 1018.34 1018.19 1018.10
1013.62 1014.07 1014.48 1014.79 1014.96 1015.03 1015.04 1015.07 1015.17 1015.40 1015.76 1016.23 1016.77 1017.32 1017.83 1018.25 1018.57 1018.78 1018.91 1018.97 1019.00 1019.01 1019.01 1019.02 1019.02 1019.01 1019.00 1018.99 1018.98 1018.99 1019.02 1019.10 1019.21 1019.33 1019.46 1019.56 1019.61 1019.61 1019.54 1019.43 1019.30 1019.17 1019.08
1013.25 1013.81 1014.33 1014.72 1014.96 1015.07 1015.09 1015.10 1015.17 1015.35 1015.67 1016.11 1016.63 1017.19 1017.72 1018.20 1018.58 1018.86 1019.07 1019.20 1019.30 1019.37 1019.43 1019.48 1019.51 1019.53 1019.53 1019.52 1019.50 1019.50 1019.53 1019.60 1019.71 1019.86 1020.02 1020.17 1020.28 1020.35 1020.36 1020.31 1020.22 1020.12 1020.02
1012.94 1013.60 1014.22 1014.71 1015.03 1015.19 1015.24 1015.24 1015.29 1015.43 1015.69 1016.07 1016.54 1017.07 1017.60 1018.09 1018.51 1018.85 1019.12 1019.33 1019.50 1019.65 1019.78 1019.89 1019.97 1020.03 1020.05 1020.05 1020.03 1020.01 1020.03 1020.08 1020.18 1020.33 1020.50 1020.69 1020.85 1020.98 1021.05 1021.05 1021.01 1020.93 1020.84
1012.70 1013.45 1014.15 1014.73 1015.13 1015.35 1015.45 1015.47 1015.51 1015.61 1015.81 1016.13 1016.54 1017.01 1017.49 1017.96 1018.37 1018.74 1019.05 1019.32 1019.57 1019.79 1019.99 1020.17 1020.32 1020.42 1020.48 1020.50 1020.49 1020.46 1020.46 1020.49 1020.57 1020.71 1020.88 1021.08 1021.28 1021.44 1021.56 1021.62 1021.62 1021.57 1021.48
1012.52 1013.31 1014.07 1014.72 1015.19 1015.49 1015.64 1015.71 1015.77 1015.86 1016.02 1016.28 1016.61 1017.01 1017.42 1017.83 1018.22 1018.57 1018.90 1019.20 1019.49 1019.77 1020.04 1020.29 1020.50 1020.66 1020.76 1020.81 1020.82 1020.80 1020.79 1020.81 1020.87 1020.98 1021.15 1021.35 1021.55 1021.74 1021.90 1021.99 1022.03 1022.01 1021.93
1012.40 1013.17 1013.95 1014.62 1015.15 1015.52 1015.75 1015.89 1015.99 1016.10 1016.26 1016.47 1016.75 1017.06 1017.40 1017.74 1018.07 1018.38 1018.68 1018.99 1019.30 1019.62 1019.94 1020.24 1020.50 1020.72 1020.87 1020.97 1021.00 1021.01 1021.00 1021.01 1021.06 1021.16 1021.31 1021.50 1021.70 1021.90 1022.08 1022.20 1022.27 1022.28 1022.23
1012.30 1013.01 1013.74 1014.40 1014.95 1015.38 1015.69 1015.92 1016.09 1016.26 1016.45 1016.66 1016.90 1017.16 1017.43 1017.69 1017.95 1018.20 1018.46 1018.74 1019.05 1019.37 1019.71 1020.05 1020.35 1020.62 1020.82 1020.96 1021.04 1021.08 1021.10 1021.13 1021.18 1021.27 1021.41 1021.58 1021.78 1021.97 1022.15 1022.30 1022.39 1022.42 1022.40
1012.25 1012.83 1013.45 1014.06 1014.60 1015.06 1015.43 1015.75 1016.02 1016.27 1016.52 1016.76 1017.01 1017.25 1017.47 1017.67 1017.87 1018.07 1018.28 1018.52 1018.79 1019.10 1019.44 1019.78 1020.12 1020.41 1020.66 1020.85 1020.98 1021.06 1021.12 1021.17 1021.24 1021.34 1021.47 1021.63 1021.81 1022.00 1022.18 1022.32 1022.43 1022.48 1022.49
1012.25 1012.66 1013.13 1013.63 1014.11 1014.57 1014.99 1015.38 1015.75 1016.10 1016.43 1016.74 1017.02 1017.27 1017.49 1017.67 1017.83 1017.98 1018.15 1018.35 1018.58 1018.87 1019.18 1019.52 1019.86 1020.17 1020.45 1020.67 1020.85 1020.98 1021.08 1021.17 1021.27 1021.38 1021.52 1021.67 1021.84 1022.02 1022.18 1022.32 1022.42 1022.49 1022.51
1012.34 1012.54 1012.83 1013.18 1013.57 1013.98 1014.42 1014.86 1015.31 1015.74 1016.16 1016.55 1016.90 1017.19 1017.43 1017.62 1017.78 1017.92 1018.07 1018.24 1018.44 1018.69 1018.98 1019.29 1019.62 1019.93 1020.22 1020.47 1020.68 1020.86 1021.01 1021.14 1021.27 1021.40 1021.54 1021.69 1021.85 1022.01 1022.15 1022.27 1022.37 1022.44 1022.47
1012.56 1012.54 1012.62 1012.80 1013.06 1013.39 1013.79 1014.24 1014.73 1015.23 1015.72 1016.18 1016.60 1016.96 1017.26 1017.49 1017.68 1017.84 1018.00 1018.16 1018.35 1018.58 1018.83 1019.12 1019.41 1019.71 1019.99 1020.25 1020.48 1020.69 1020.87 1021.04 1021.20 1021.35 1021.51 1021.66 1021.81 1021.94 1022.07 1022.17 1022.26 1022.32 1022.35
1012.92 1012.70 1012.58 1012.56 1012.67 1012.89 1013.21 1013.62 1014.09 1014.61 1015.14 1015.66 1016.14 1016.57 1016.93 1017.24 1017.48 1017.70 1017.89 1018.07 1018.26 1018.47 1018.71 1018.96 1019.22 1019.48 1019.74 1019.99 1020.23 1020.45 1020.65 1020.84 1021.02 1021.20 1021.36 1021.52 1021.66 1021.79 1021.89 1021.98 1022.05 1022.10 1022.13
1013.42 1013.03 1012.72 1012.53 1012.48 1012.55 1012.75 1013.07 1013.49 1013.97 1014.49 1015.02 1015.54 1016.01 1016.45 1016.82 1017.14 1017.42 1017.67 1017.89 1018.11 1018.32 1018.53 1018.76 1018.98 1019.21 1019.44 1019.66 1019.88 1020.09 1020.30 1020.50 1020.70 1020.88 1021.06 1021.22 1021.37 1021.49 1021.60 1021.68 1021.74 1021.78 1021.80
1014.04 1013.52 1013.07 1012.73 1012.51 1012.44 1012.49 1012.68 1012.98 1013.38 1013.83 1014.33 1014.84 1015.34 1015.81 1016.25 1016.64 1016.98 1017.29 1017.57 1017.81 1018.04 1018.25 1018.45 1018.64 1018.83 1019.02 1019.21 1019.40 1019.60 1019.80 1020.00 1020.20 1020.39 1020.58 1020.75 1020.91 1021.04 1021.16 1021.25 1021.32 1021.36 1021.39
1014.73 1014.14 1013.59 1013.14 1012.79 1012.56 1012.46 1012.49 1012.64 1012.90 1013.25 1013.66 1014.12 1014.59 1015.07 1015.54 1015.97 1016.37 1016.73 1017.05 1017.33 1017.57 1017.78 1017.97 1018.14 1018.30 1018.45 1018.61 1018.78 1018.95 1019.14 1019.33 1019.53 1019.73 1019.93 1020.12 1020.29 1020.45 1020.59 1020.71 1020.80 1020.87 1020.90
1015.43 1014.82 1014.23 1013.70 1013.24 1012.88 1012.63 1012.50 1012.49 1012.59 1012.79 1013.08 1013.44 1013.85 1014.29 1014.74 1015.19 1015.61 1016.00 1016.34 1016.64 1016.89 1017.11 1017.29 1017.44 1017.58 1017.72 1017.86 1018.01 1018.17 1018.34 1018.53 1018.73 1018.94 1019.15 1019.36 1019.56 1019.75 1019.93 1020.09 1020.22 1020.31 1020.38
1016.10 1015.51 1014.92 1014.36 1013.83 1013.37 1012.99 1012.70 1012.52 1012.46 1012.49 1012.64 1012.87 1013.17 1013.53 1013.93 1014.34 1014.73 1015.11 1015.45 1015.75 1016.00 1016.22 1016.40 1016.55 1016.69 1016.83 1016.97 1017.12 1017.28 1017.45 1017.64 1017.85 1018.07 1018.29 1018.53 1018.76 1018.99 1019.21 1019.41 1019.58 1019.72 1019.81
1016.70 1016.17 1015.61 1015.04 1014.48 1013.95 1013.47 1013.05 1012.73 1012.50 1012.37 1012.36 1012.44 1012.61 1012.85 1013.14 1013.47 1013.80 1014.13 1014.43 1014.70 1014.94 1015.14 1015.33 1015.49 1015.65 1015.80 1015.96 1016.13 1016.31 1016.50 1016.71 1016.93 1017.17 1017.41 1017.67 1017.93 1018.19 1018.45 1018.69 1018.90 1019.08 1019.21
1017.22 1016.75 1016.23 1015.69 1015.12 1014.55 1014.00 1013.49 1013.05 1012.68 1012.41 1012.24 1012.16 1012.18 1012.27 1012.43 1012.63 1012.86 1013.09 1013.31 1013.53 1013.73 1013.92 1014.10 1014.28 1014.46 1014.65 1014.85 1015.06 1015.29 1015.52 1015.76 1016.01 1016.26 1016.52 1016.80 1017.08 1017.36 1017.64 1017.91 1018.16 1018.37 1018.53
1017.64 1017.23 1016.76 1016.25 1015.70 1015.12 1014.53 1013.96 1013.43 1012.95 1012.56 1012.24 1012.02 1011.88 1011.81 1011.81 1011.86 1011.94 1012.04 1012.16 1012.29 1012.43 1012.58 1012.75 1012.95 1013.16 1013.40 1013.66 1013.93 1014.21 1014.49 1014.78 1015.06 1015.34 1015.62 1015.91 1016.20 1016.49 1016.78 1017.06 1017.32 1017.55 1017.72
1017.98 1017.60 1017.18 1016.69 1016.15 1015.58 1014.98 1014.38 1013.80 1013.25 1012.76 1012.33 1011.97 1011.68 1011.45 1011.28 1011.16 1011.07 1011.02 1011.00 1011.02 1011.08 1011.18 1011.33 1011.52 1011.76 1012.05 1012.37 1012.71 1013.05 1013.40 1013.74 1014.06 1014.38 1014.68 1014.97 1015.26 1015.55 1015.83 1016.11 1016.37 1016.59 1016.78
1018.21 1017.85 1017.44 1016.98 1016.46 1015.89 1015.30 1014.69 1014.09 1013.50 1012.94 1012.43 1011.96 1011.53 1011.15 1010.82 1010.52 1010.26 1010.05 1009.88 1009.76 1009.72 1009.74 1009.84 1010.03 1010.28 1010.60 1010.97 1011.37 1011.79 1012.20 1012.59 1012.97 1013.31 1013.64 1013.94 1014.23 1014.51 1014.78 1015.04 1015.28 1015.50 1015.69
Thickness
5746 5748 5749 5750 5750 5750 5748 5746 5745 5744 5742 5739 5737 5734 5732 5732 5731 5730 5729 5728 5727 5727 5727 5726 5725 5723 5721 5720 5719 5718 5717 5717 5719 5716 5714 5717 5720 5719 5719 5720 5720 5720 5721
5742 5743 5745 5747 5747 5746 5745 5744 5743 5742 5740 5737 5737 5735 5733 5731 5729 5728 5727 5726 5725 5725 5725 5724 5723 5721 5719 5717 5716 5715 5713 5714 5716 5711 5707 5703 5706 5711 5717 5717 5717 5718 5719
5741 5741 5743 5743 5744 5743 5743 5743 5742 5740 5739 5737 5735 5734 5731 5729 5726 5724 5723 5723 5722 5722 5722 5722 5721 5719 5717 5715 5714 5712 5710 5708 5711 5712 5705 5697 5693 5701 5709 5713 5714 5715 5715
5743 5741 5741 5741 5741 5741 5743 5742 5741 5739 5738 5736 5733 5729 5724 5722 5722 5722 5722 5721 5720 5719 5719 5719 5718 5717 5715 5713 5712 5710 5709 5707 5704 5707 5708 5706 5703 5697 5697 5704 5709 5711 5712
5743 5741 5742 5741 5741 5741 5740 5740 5738 5736 5734 5733 5730 5727 5724 5723 5722 5721 5720 5719 5718 5717 5717 5717 5716 5714 5713 5712 5710 5708 5707 5705 5702 5702 5702 5703 5702 5702 5696 5693 5698 5704 5707
5744 5743 5743 5742 5739 5739 5737 5736 5733 5731 5730 5729 5728 5725 5722 5721 5718 5717 5716 5715 5715 5715 5715 5714 5713 5712 5711 5710 5709 5707 5705 5703 5702 5700 5699 5697 5695 5694 5694 5692 5694 5696 5700
5744 5741 5739 5737 5735 5734 5733 5731 5729 5727 5727 5727 5725 5723 5721 5719 5717 5715 5714 5713 5712 5712 5713 5712 5711 5710 5709 5708 5707 5705 5703 5702 5699 5697 5697 5696 5695 5695 5694 5691 5691 5692 5696
5745 5742 5739 5736 5733 5732 5730 5729 5726 5724 5725 5724 5723 5722 5720 5717 5715 5714 5713 5713 5711 5710 5711 5711 5710 5708 5708 5707 5705 5703 5702 5700 5698 5697 5695 5694 5694 5694 5692 5690 5688 5686 5688
5745 5742 5740 5737 5733 5730 5729 5728 5725 5723 5723 5722 5721 5719 5717 5715 5713 5713 5712 5711 5711 5710 5709 5709 5708 5707 5706 5704 5703 5700 5699 5697 5696 5694 5693 5691 5691 5691 5690 5690 5688 5683 5679
5746 5743 5740 5737 5733 5731 5729 5728 5726 5723 5722 5721 5720 5717 5715 5713 5712 5710 5708 5708 5708 5708 5708 5708 5707 5705 5704 5703 5700 5698 5697 5695 5693 5692 5690 5689 5688 5688 5687 5687 5686 5684 5680
5746 5743 5740 5737 5734 5732 5729 5727 5726 5723 5721 5720 5718 5715 5713 5711 5709 5707 5706 5706 5706 5706 5706 5705 5705 5703 5702 5700 5698 5696 5694 5692 5691 5690 5688 5686 5686 5684 5683 5683 5682 5681 5679
5748 5745 5741 5737 5733 5731 5729 5727 5725 5723 5721 5720 5717 5714 5712 5709 5707 5705 5704 5705 5704 5705 5704 5704 5702 5701 5699 5697 5695 5693 5691 5689 5687 5686 5684 5682 5682 5680 5679 5678 5677 5676 5676
5747 5744 5740 5736 5732 5730 5729 5728 5725 5723 5721 5719 5716 5713 5710 5708 5706 5704 5704 5704 5703 5703 5702 5701 5699 5697 5696 5694 5692 5690 5688 5686 5684 5683 5681 5679 5677 5674 5674 5673 5671 5670 5671
5746 5742 5737 5734 5732 5730 5729 5728 5726 5724 5721 5718 5715 5713 5711 5709 5706 5705 5704 5703 5702 5701 5699 5698 5696 5694 5692 5690 5688 5686 5684 5683 5681 5680 5677 5675 5672 5670 5668 5667 5665 5664 5663
5743 5740 5736 5734 5732 5730 5729 5727 5725 5723 5721 5717 5714 5713 5712 5710 5707 5704 5702 5701 5699 5699 5697 5695 5692 5690 5687 5685 5682 5680 5679 5677 5676 5674 5673 5671 5668 5666 5663 5661 5658 5656 5654
5743 5740 5738 5735 5732 5731 5729 5727 5725 5723 5720 5716 5714 5712 5711 5708 5705 5702 5700 5698 5696 5695 5693 5691 5688 5685 5682 5680 5677 5675 5673 5672 5670 5668 5666 5665 5662 5660 5658 5656 5653 5651 5647
5744 5741 5739 5737 5735 5734 5732 5728 5725 5723 5719 5715 5712 5710 5708 5705 5702 5700 5697 5694 5692 5690 5688 5685 5682 5679 5676 5675 5673 5670 5668 5666 5664 5662 5660 5659 5656 5653 5650 5649 5647 5644 5641
5745 5743 5741 5739 5738 5736 5733 5730 5726 5721 5717 5714 5710 5708 5705 5702 5699 5696 5693 5690 5688 5685 5682 5680 5677 5674 5671 5670 5667 5665 5663 5660 5659 5657 5654 5651 5648 5646 5643 5641 5639 5636 5634
5748 5746 5744 5741 5739 5736 5733 5729 5724 5720 5715 5712 5709 5706 5703 5699 5695 5692 5689 5687 5684 5681 5679 5676 5673 5669 5666 5664 5662 5660 5656 5654 5652 5650 5648 5644 5640 5638 5636 5632 5629 5627 5626
5748 5745 5743 5740 5736 5734 5732 5726 5721 5717 5713 5711 5708 5705 5702 5697 5693 5690 5687 5684 5681 5677 5675 5672 5669 5666 5662 5659 5656 5653 5650 5647 5645 5643 5640 5637 5633 5630 5626 5622 5619 5616 5615
5745 5743 5739 5735 5733 5732 5727 5721 5718 5715 5713 5710 5706 5702 5698 5694 5690 5686 5683 5680 5676 5673 5670 5667 5664 5661 5658 5654 5651 5647 5643 5640 5637 5635 5631 5628 5625 5621 5618 5614 5610 5607 5606
5739 5737 5733 5730 5729 5728 5723 5717 5713 5713 5710 5706 5701 5697 5694 5691 5687 5682 5678 5675 5671 5666 5663 5660 5658 5655 5653 5649 5645 5642 5637 5634 5629 5627 5624 5620 5617 5613 5609 5606 5602 5600 5596
5733 5731 5727 5724 5723 5722 5718 5712 5710 5708 5705 5700 5696 5692 5689 5685 5682 5677 5673 5669 5665 5661 5658 5654 5651 5649 5647 5643 5639 5635 5631 5627 5622 5618 5615 5612 5608 5605 5601 5598 5594 5590 5585
5726 5724 5721 5717 5715 5715 5712 5709 5706 5703 5699 5694 5690 5687 5683 5679 5676 5672 5668 5664 5660 5656 5653 5649 5645 5643 5640 5636 5631 5627 5622 5618 5613 5609 5606 5603 5599 5595 5592 5589 5585 5581 5576
5721 5718 5715 5711 5709 5708 5706 5704 5701 5697 5692 5688 5684 5681 5677 5674 5670 5666 5662 5659 5656 5652 5647 5644 5640 5636 5632 5629 5625 5619 5615 5609 5605 5600 5596 5592 5589 5585 5582 5579 5575 5571 5566
5715 5712 5709 5705 5704 5702 5699 5697 5695 5691 5685 5681 5678 5674 5671 5667 5664 5659 5656 5653 5650 5647 5643 5639 5635 5631 5627 5623 5618 5613 5608 5602 5597 5591 5586 5583 5579 5576 5572 5568 5564 5560 5555